Wind_Speed
34 34 34 35 35 36 35 33 33 32 32 31 30 30 30 31 31 31 28 26 26 25 24 23 23 23 22 22 22 22 22 21 21 21 20 19 18 17 16 15 14 13 13 12 12 11 11 10 10
35 35 36 36 37 36 36 35 34 33 33 32 32 33 33 33 33 32 31 29 29 28 27 27 26 25 25 24 24 24 23 23 23 22 22 22 21 20 19 18 16 15 14 14 14 13 12 12 11
36 36 37 37 38 37 36 36 36 35 34 33 33 34 35 35 34 34 33 32 32 31 30 30 29 28 28 27 26 25 25 25 24 24 24 23 23 23 22 21 20 18 17 16 15 15 14 13 13
38 38 38 38 38 38 38 38 38 37 35 35 35 36 37 36 36 36 35 35 35 34 33 33 32 31 31 30 29 28 27 27 26 26 25 25 25 24 24 23 22 21 20 18 17 16 16 15 15
40 40 40 39 39 39 40 40 40 39 38 37 37 38 38 38 38 37 37 37 37 36 36 35 35 34 33 33 32 31 30 29 28 28 27 27 27 27 26 25 25 24 23 21 20 18 18 17 17
41 41 41 40 40 40 41 41 41 41 40 40 40 40 39 40 40 39 39 39 39 39 38 37 37 37 36 35 35 34 33 32 31 30 29 29 29 29 28 28 27 26 25 24 23 21 20 19 19
42 42 42 41 41 41 42 41 42 42 41 41 41 41 41 41 41 40 41 42 42 42 41 41 40 39 39 38 37 37 36 35 34 33 32 31 31 30 30 29 29 28 27 26 26 24 22 21 21
42 42 42 41 42 42 42 42 42 42 42 42 42 43 43 42 42 42 43 44 44 44 44 43 43 42 41 41 40 40 39 38 37 36 34 33 32 31 32 31 30 29 29 28 27 27 25 24 23
41 42 41 41 41 42 42 43 43 43 44 44 44 44 44 44 44 44 44 45 45 46 46 45 45 44 44 43 43 43 42 41 40 39 37 36 35 34 33 33 32 32 31 30 29 29 28 26 25
41 41 41 41 41 42 41 42 42 43 43 44 45 45 45 46 46 46 46 46 47 47 48 48 47 47 46 46 45 45 45 44 43 42 41 40 39 37 35 34 34 34 33 31 31 31 30 29 28
40 40 41 41 41 41 41 41 42 42 43 44 45 45 46 47 47 47 48 48 48 48 49 49 50 50 49 49 49 48 48 47 46 45 44 43 41 40 39 37 36 35 34 33 32 32 31 31 31
39 39 40 40 40 40 40 41 41 41 42 43 44 45 45 46 46 47 48 49 49 49 50 50 51 52 52 51 51 50 50 49 48 48 47 45 44 43 41 40 38 37 36 35 34 34 33 33 33
38 38 38 39 39 39 39 39 40 40 41 42 42 43 43 44 45 46 47 48 49 50 50 51 51 53 53 53 53 52 51 51 51 50 49 48 47 46 44 42 40 39 38 36 35 35 35 34 34
35 36 37 37 37 37 37 38 38 38 39 40 40 41 42 43 44 45 46 47 48 49 51 51 52 53 54 54 55 55 54 54 53 53 52 50 50 49 47 45 43 42 40 39 37 36 36 36 35
32 33 34 35 35 35 36 36 36 36 37 38 39 40 41 42 43 44 45 46 47 47 49 50 52 53 54 55 56 56 56 55 55 54 54 53 52 51 50 48 46 45 44 42 41 39 38 38 38
29 31 32 33 34 34 35 34 35 35 36 36 37 39 40 41 42 43 44 45 46 47 48 49 51 53 54 55 55 56 57 57 57 57 56 55 55 54 53 51 49 47 46 45 44 42 40 40 40
28 28 29 30 31 32 33 32 33 33 34 35 36 37 38 39 39 40 41 43 43 44 45 46 48 50 51 54 55 56 57 58 58 58 58 58 57 57 56 54 52 51 49 47 46 45 43 42 41
25 26 27 27 28 28 29 30 31 31 33 34 35 35 36 36 36 37 38 39 41 41 41 42 44 46 48 50 52 54 56 57 57 58 58 59 59 58 57 56 54 53 52 50 49 48 47 45 44
22 23 24 25 25 26 26 28 29 30 32 32 33 33 33 33 34 35 36 37 38 39 39 40 42 43 44 46 48 50 52 54 56 56 58 59 59 58 58 57 56 55 53 51 50 50 49 47 47
19 20 21 22 22 23 24 26 27 28 29 29 30 30 31 32 32 32 34 35 36 37 38 39 40 42 44 45 45 46 48 50 52 54 56 57 58 58 57 57 56 56 54 52 52 51 50 49 48
16 17 18 19 20 21 22 24 24 25 26 26 27 28 29 29 30 31 32 34 35 36 36 37 38 39 41 42 44 46 46 47 49 51 52 55 56 56 56 56 56 56 55 53 53 52 50 49 49
13 14 15 16 17 18 19 20 20 22 23 24 25 26 28 29 29 30 31 31 33 34 34 35 36 37 39 39 40 43 44 45 46 48 48 51 53 55 56 56 56 56 56 54 53 52 52 51 51
11 11 12 13 14 15 16 17 18 19 20 22 23 24 26 27 28 28 29 29 30 30 31 32 34 35 37 38 39 40 41 42 44 45 47 48 51 53 55 55 55 54 54 53 52 50 51 52 52
10 10 10 11 12 13 13 14 15 15 16 18 19 21 23 24 25 26 27 27 27 27 27 29 30 30 31 33 35 36 38 39 41 43 44 46 47 49 51 52 54 52 52 53 53 50 50 51 52
9 9 9 9 10 10 10 12 12 13 15 16 18 19 20 22 22 23 24 24 24 24 24 25 26 27 28 29 31 32 34 35 37 39 41 43 44 45 47 49 50 50 50 50 51 50 49 49 51
7 7 7 7 8 8 9 11 11 12 14 15 16 17 18 18 18 19 19 19 19 20 20 21 21 22 23 24 25 27 28 28 30 33 35 38 40 40 40 42 46 47 48 48 49 50 50 50 50
5 5 5 5 7 8 9 10 11 11 12 14 14 15 15 15 15 15 15 14 14 15 16 17 17 18 18 19 20 22 24 25 27 30 32 33 34 35 36 38 41 42 44 44 46 48 49 50 50
4 3 4 5 6 8 8 9 10 10 11 12 12 12 12 11 11 11 11 9 10 12 13 14 14 13 13 14 16 18 20 21 23 26 28 30 31 32 32 35 38 40 41 42 43 45 47 48 48
4 4 5 6 7 8 9 9 10 11 11 11 10 10 9 7 8 8 7 8 9 10 11 11 11 10 10 11 12 13 14 16 18 21 23 26 28 30 31 32 36 38 40 41 43 44 46 47 48
5 5 5 7 8 8 9 9 10 11 11 10 8 7 7 6 6 7 7 8 10 10 10 10 10 10 9 10 10 11 12 14 16 18 20 23 25 27 29 32 35 36 38 39 41 43 44 46 48
Wind_Direction
247 247 246 246 247 247 247 246 246 245 244 243 243 244 245 246 247 250 253 252 252 252 251 252 253 253 254 254 255 256 257 257 258 258 257 258 258 258 259 261 263 264 264 262 261 259 257 256 255
247 246 246 246 247 247 247 247 247 246 245 244 244 245 245 246 248 250 252 252 252 252 253 253 253 253 254 254 255 255 255 256 257 258 258 257 256 256 257 258 260 261 263 263 262 261 259 257 256
246 246 246 246 247 248 248 248 248 246 246 245 245 245 246 246 248 250 251 252 252 252 253 253 253 254 254 254 254 254 254 255 256 257 257 256 256 256 256 256 257 259 261 262 262 262 260 259 257
245 245 246 246 247 248 248 249 249 248 247 247 247 246 246 247 248 249 251 252 252 252 253 253 254 254 254 254 254 254 254 255 255 255 256 255 255 255 256 256 257 257 259 260 261 261 260 260 259
244 245 246 247 247 247 248 249 250 250 249 249 249 249 248 248 249 250 250 251 253 253 253 253 254 254 254 254 254 254 254 254 255 255 255 255 255 255 255 255 257 257 257 259 259 261 261 261 260
244 245 246 247 247 248 247 248 250 251 251 250 250 251 251 251 251 251 252 253 253 254 254 254 254 254 254 254 254 254 254 254 255 255 255 255 256 255 255 255 256 257 256 257 258 259 262 262 261
245 245 246 247 248 248 248 248 250 251 251 252 252 253 253 253 253 253 253 254 254 255 255 255 254 254 254 253 253 253 253 253 254 255 255 255 255 255 255 255 255 255 256 256 257 258 260 262 263
244 245 246 246 247 248 248 248 250 251 252 253 253 254 254 254 255 255 254 255 255 255 255 255 254 253 254 254 253 253 252 253 253 254 254 254 255 255 255 254 254 254 255 256 257 256 258 261 263
243 245 246 246 247 249 249 250 250 251 253 254 255 256 256 256 256 256 256 256 256 257 256 256 254 253 253 254 253 253 253 253 253 253 253 253 253 253 254 254 254 254 254 255 256 256 257 258 261
242 244 245 245 247 249 250 251 252 252 254 255 256 257 258 258 258 257 258 258 258 257 256 256 254 254 254 254 253 253 253 253 253 253 253 252 251 251 253 253 254 254 254 255 255 256 256 257 258
242 244 245 245 247 249 250 252 253 254 254 256 257 258 259 259 259 259 259 259 258 258 257 255 254 254 254 254 253 253 253 253 253 253 252 251 250 250 251 252 253 255 254 254 254 255 255 255 256
241 243 244 245 247 248 250 252 254 255 256 257 258 259 260 260 260 260 259 259 258 257 257 255 254 254 253 253 253 252 252 253 253 252 252 251 249 250 251 251 252 253 254 255 255 254 255 255 256
241 242 243 245 247 249 251 253 254 256 257 258 259 260 261 261 261 261 261 260 258 258 257 256 255 255 254 253 252 252 252 252 252 251 251 250 249 249 250 251 251 252 253 255 256 255 255 257 257
241 243 244 246 247 249 252 253 255 256 257 258 260 261 262 262 262 263 263 262 260 259 258 257 256 255 254 254 253 252 251 251 250 250 250 249 249 248 249 251 251 251 252 253 255 256 256 256 257
240 242 244 246 248 249 251 252 254 256 258 260 261 262 263 263 264 264 264 263 262 261 260 258 256 255 254 254 253 252 251 250 250 249 248 248 248 248 249 250 251 251 251 252 254 255 257 257 258
239 241 244 246 248 249 251 252 255 257 259 261 262 263 264 264 265 264 264 263 261 261 261 260 257 256 255 254 254 253 252 250 249 248 248 248 248 248 249 249 249 251 251 251 252 254 255 257 258
238 242 245 248 249 250 251 254 256 259 260 261 263 264 265 265 265 265 264 263 263 264 263 261 259 257 256 255 254 253 252 251 250 248 247 246 247 247 248 248 249 249 250 251 251 252 254 256 258
238 243 245 248 250 252 253 255 258 260 262 263 265 265 266 266 267 267 268 267 265 265 264 263 260 259 257 256 255 254 252 251 250 248 246 245 245 246 246 246 247 248 249 249 251 253 253 255 257
240 243 246 248 251 253 256 258 260 262 264 265 265 266 266 267 269 269 270 270 268 265 265 264 262 260 258 256 255 253 252 251 250 248 246 245 244 244 245 245 246 247 248 249 250 252 252 253 254
238 242 247 250 254 256 258 261 262 264 265 264 264 266 268 269 270 272 272 272 270 268 266 265 263 261 259 257 255 253 253 251 249 247 245 243 243 243 244 245 245 245 247 249 250 251 252 252 253
239 246 250 252 254 260 263 264 265 267 266 266 267 270 271 272 275 276 276 273 271 269 267 266 266 264 262 259 256 254 252 250 248 247 246 243 242 242 242 243 244 245 246 247 249 251 252 252 253
245 251 253 254 257 260 263 265 266 266 266 268 271 273 274 276 278 279 277 275 273 271 268 266 265 265 263 260 258 254 253 251 249 248 246 243 241 241 242 242 243 244 246 246 248 250 251 252 253
247 251 255 256 259 261 265 268 268 267 268 270 272 276 278 279 281 281 279 278 277 273 270 268 267 268 264 261 259 256 253 250 248 247 245 243 242 242 242 243 242 244 245 245 247 249 250 252 254
244 248 251 254 260 264 268 273 272 270 272 276 278 281 282 282 283 284 281 281 280 276 273 274 274 271 267 263 258 255 252 249 248 247 244 242 242 242 242 242 241 243 244 245 247 248 250 252 253
239 242 249 258 262 267 273 279 281 277 281 283 284 285 286 287 288 288 287 285 283 278 278 279 277 274 270 264 258 253 251 250 248 245 242 241 240 240 242 243 241 241 242 243 246 248 249 251 253
236 238 252 264 269 277 281 286 288 287 289 289 290 290 291 293 292 292 291 289 286 283 283 285 280 276 270 264 257 251 251 249 247 243 241 240 239 238 239 239 240 240 241 244 246 248 249 251 253
226 233 241 266 277 285 288 291 292 292 290 292 293 294 295 299 299 299 303 298 295 296 295 294 290 280 273 267 259 253 249 249 247 244 242 239 237 238 237 237 238 240 243 245 247 249 251 252 254
223 232 251 277 286 291 293 297 301 297 296 295 296 297 301 304 306 307 309 308 310 309 309 306 300 290 281 273 263 256 252 251 249 245 242 239 236 238 239 239 240 242 246 248 250 252 253 254 257
238 257 274 290 295 297 299 308 312 309 306 304 303 304 308 315 319 326 331 328 328 326 321 320 312 300 286 278 271 258 252 249 249 246 244 240 238 241 243 244 246 249 251 253 253 255 257 258 259
260 274 284 291 295 295 298 311 314 315 313 316 313 315 316 326 335 341 348 348 343 340 332 325 323 314 300 290 278 269 266 260 254 248 245 241 245 245 245 246 249 252 255 257 257 258 260 261 261
Height
5802 5804 5807 5810 5812 5815 5817 5821 5823 5826 5828 5831 5833 5835 5837 5839 5841 5844 5846 5847 5849 5851 5852 5854 5855 5856 5858 5859 5860 5862 5863 5864 5866 5867 5868 5869 5870 5871 5872 5873 5873 5874 5874 5875 5875 5875 5875 5876 5876
5795 5798 5801 5803 5806 5809 5812 5815 5817 5820 5823 5826 5828 5830 5832 5833 5836 5838 5840 5842 5844 5846 5848 5850 5851 5853 5854 5855 5857 5858 5859 5861 5862 5863 5865 5866 5867 5868 5869 5870 5871 5872 5872 5873 5873 5874 5874 5874 5874
5788 5791 5794 5797 5799 5803 5806 5808 5810 5813 5817 5820 5822 5824 5826 5829 5831 5832 5835 5837 5839 5841 5843 5845 5846 5848 5850 5851 5852 5854 5855 5857 5858 5860 5861 5862 5864 5865 5866 5867 5868 5869 5870 5871 5871 5872 5872 5872 5872
5781 5784 5787 5791 5793 5797 5799 5801 5804 5807 5811 5814 5816 5818 5820 5823 5825 5827 5829 5831 5833 5836 5838 5839 5841 5843 5845 5846 5848 5849 5851 5852 5854 5855 5857 5858 5860 5861 5862 5864 5865 5866 5867 5868 5869 5869 5869 5870 5870
5773 5776 5780 5783 5787 5789 5791 5793 5797 5800 5804 5807 5809 5811 5814 5817 5818 5821 5824 5825 5827 5830 5832 5833 5835 5837 5839 5841 5843 5844 5846 5848 5849 5851 5852 5854 5855 5857 5858 5860 5861 5862 5863 5865 5866 5866 5867 5867 5867
5766 5769 5773 5776 5779 5782 5784 5787 5790 5793 5796 5799 5802 5804 5807 5810 5812 5815 5817 5819 5821 5823 5825 5827 5829 5831 5833 5835 5837 5838 5840 5842 5844 5846 5847 5849 5850 5852 5854 5855 5857 5858 5860 5861 5862 5863 5864 5864 5865
5758 5761 5765 5768 5771 5774 5777 5780 5783 5785 5788 5791 5794 5797 5799 5802 5805 5808 5810 5812 5814 5816 5818 5820 5822 5824 5826 5828 5830 5832 5834 5836 5838 5840 5842 5844 5845 5847 5849 5850 5852 5854 5855 5856 5858 5859 5860 5861 5862
5749 5753 5757 5760 5763 5765 5768 5772 5775 5777 5781 5783 5786 5789 5791 5795 5797 5800 5802 5804 5806 5808 5810 5812 5815 5817 5819 5821 5823 5825 5827 5829 5831 5833 5836 5838 5840 5841 5843 5845 5847 5849 5850 5852 5853 5855 5856 5857 5858
5740 5746 5749 5753 5755 5757 5760 5764 5767 5769 5773 5775 5778 5781 5783 5786 5788 5791 5793 5795 5797 5799 5801 5803 5806 5809 5811 5813 5816 5818 5820 5822 5824 5826 5829 5831 5833 5835 5837 5839 5841 5843 5845 5847 5848 5850 5851 5852 5853
5732 5737 5742 5744 5746 5749 5753 5755 5758 5762 5764 5767 5769 5772 5774 5776 5779 5781 5783 5785 5787 5789 5791 5794 5796 5799 5802 5804 5807 5810 5812 5814 5817 5819 5821 5824 5826 5828 5831 5833 5835 5837 5839 5841 5842 5844 5846 5847 5848
5724 5729 5732 5735 5738 5741 5744 5747 5750 5753 5756 5758 5760 5762 5765 5767 5769 5771 5773 5775 5777 5779 5781 5783 5786 5789 5792 5795 5797 5800 5803 5805 5808 5811 5813 5815 5818 5821 5824 5826 5828 5830 5832 5834 5836 5838 5840 5841 5842
5717 5720 5724 5728 5731 5734 5737 5740 5742 5745 5747 5748 5751 5753 5755 5757 5759 5761 5762 5764 5766 5768 5770 5772 5775 5778 5781 5784 5787 5790 5793 5796 5799 5802 5804 5806 5810 5813 5816 5819 5821 5824 5826 5828 5830 5832 5833 5835 5836
5709 5713 5717 5720 5723 5726 5729 5732 5734 5737 5738 5740 5742 5743 5745 5747 5748 5750 5752 5753 5755 5757 5759 5762 5764 5766 5769 5772 5776 5779 5782 5785 5789 5792 5795 5797 5801 5805 5808 5811 5814 5816 5819 5821 5823 5825 5827 5828 5829
5703 5706 5710 5713 5716 5719 5722 5724 5726 5729 5730 5731 5733 5734 5736 5737 5738 5740 5741 5742 5744 5746 5748 5750 5753 5755 5757 5760 5763 5767 5771 5774 5778 5781 5785 5788 5792 5795 5799 5802 5806 5809 5811 5813 5816 5818 5820 5821 5823
5696 5700 5703 5706 5709 5712 5715 5717 5719 5721 5722 5723 5724 5725 5726 5727 5728 5729 5730 5731 5733 5734 5736 5738 5740 5742 5745 5748 5751 5755 5758 5762 5766 5770 5774 5778 5782 5786 5789 5792 5796 5800 5802 5805 5808 5810 5812 5814 5815
5690 5694 5697 5700 5702 5705 5709 5710 5711 5713 5714 5715 5716 5717 5717 5718 5718 5719 5719 5721 5722 5723 5724 5725 5727 5730 5733 5735 5738 5742 5746 5750 5754 5758 5762 5766 5770 5775 5779 5783 5787 5790 5793 5796 5799 5802 5804 5805 5807
5685 5688 5691 5694 5696 5698 5701 5703 5704 5706 5707 5707 5708 5708 5708 5709 5709 5709 5709 5710 5711 5711 5712 5713 5715 5717 5720 5722 5725 5729 5732 5736 5741 5746 5750 5754 5758 5763 5767 5772 5776 5780 5783 5787 5790 5793 5795 5797 5799
5682 5684 5686 5688 5691 5692 5694 5696 5697 5699 5699 5700 5700 5700 5700 5700 5700 5700 5700 5700 5700 5700 5701 5702 5703 5704 5707 5709 5712 5715 5719 5723 5727 5732 5737 5741 5746 5750 5755 5760 5764 5769 5772 5776 5779 5782 5785 5788 5790
5678 5680 5682 5684 5685 5687 5688 5690 5691 5691 5692 5692 5692 5692 5692 5692 5692 5691 5691 5690 5689 5690 5690 5691 5692 5693 5694 5697 5699 5702 5706 5710 5714 5718 5723 5728 5733 5738 5742 5747 5752 5757 5761 5764 5768 5771 5775 5778 5780
5674 5676 5678 5680 5680 5682 5683 5684 5685 5685 5685 5685 5685 5685 5685 5685 5684 5683 5682 5681 5680 5679 5679 5680 5680 5682 5683 5685 5687 5689 5692 5696 5700 5704 5709 5714 5719 5725 5730 5735 5740 5745 5749 5753 5757 5760 5764 5767 5769
5671 5673 5674 5676 5676 5677 5679 5680 5680 5679 5679 5679 5679 5678 5678 5677 5676 5675 5673 5672 5670 5670 5669 5669 5670 5670 5671 5672 5674 5677 5679 5683 5687 5691 5695 5700 5706 5712 5717 5722 5727 5732 5737 5742 5746 5749 5752 5755 5758
5668 5669 5671 5672 5673 5674 5675 5675 5675 5674 5674 5674 5674 5673 5672 5671 5669 5667 5665 5664 5662 5661 5660 5660 5659 5659 5660 5661 5662 5664 5667 5670 5674 5678 5682 5687 5693 5698 5704 5709 5714 5719 5724 5729 5734 5737 5741 5744 5746
5666 5667 5668 5669 5669 5670 5670 5670 5671 5670 5670 5670 5669 5668 5666 5665 5663 5661 5658 5656 5654 5652 5651 5651 5650 5650 5649 5649 5650 5652 5655 5659 5662 5666 5670 5675 5680 5686 5691 5696 5701 5707 5712 5717 5721 5724 5728 5731 5734
5663 5665 5666 5666 5667 5668 5667 5667 5667 5666 5666 5665 5664 5663 5661 5659 5657 5654 5652 5649 5647 5645 5643 5642 5641 5640 5639 5639 5640 5641 5644 5648 5651 5655 5659 5663 5668 5673 5678 5683 5689 5694 5699 5704 5708 5712 5715 5719 5721
5662 5664 5665 5664 5664 5665 5665 5664 5664 5663 5662 5661 5660 5658 5656 5654 5651 5649 5646 5643 5640 5638 5637 5635 5633 5632 5631 5631 5631 5633 5635 5637 5641 5645 5649 5653 5658 5663 5667 5672 5677 5683 5688 5692 5696 5699 5703 5706 5709
5661 5662 5663 5663 5663 5663 5662 5661 5662 5660 5659 5657 5656 5654 5652 5649 5646 5643 5640 5638 5635 5633 5630 5628 5626 5625 5623 5623 5624 5625 5627 5629 5632 5636 5640 5644 5649 5653 5658 5662 5667 5672 5677 5681 5684 5688 5691 5694 5697
5660 5660 5661 5662 5661 5661 5660 5660 5659 5657 5656 5654 5652 5650 5648 5645 5642 5640 5637 5634 5631 5629 5626 5623 5621 5619 5618 5618 5618 5619 5621 5623 5625 5628 5632 5635 5640 5644 5648 5653 5658 5662 5666 5670 5673 5676 5679 5682 5684
5660 5660 5660 5660 5660 5659 5659 5658 5657 5655 5653 5651 5649 5647 5645 5642 5640 5637 5635 5632 5629 5626 5623 5620 5617 5615 5614 5614 5614 5615 5616 5618 5619 5622 5625 5628 5632 5637 5640 5644 5649 5653 5656 5659 5662 5665 5668 5670 5672
5660 5660 5659 5659 5658 5658 5657 5659 5655 5652 5650 5649 5647 5645 5643 5641 5638 5636 5633 5630 5627 5624 5621 5618 5615 5613 5612 5611 5611 5611 5612 5613 5614 5616 5619 5622 5626 5629 5633 5637 5640 5644 5647 5650 5652 5654 5656 5658 5659
5658 5658 5658 5658 5658 5656 5655 5658 5652 5650 5648 5646 5645 5643 5641 5639 5637 5635 5632 5629 5626 5623 5620 5617 5615 5612 5611 5610 5609 5609 5609 5609 5610 5612 5614 5616 5619 5622 5626 5629 5632 5635 5637 5639 5641 5643 5644 5646 5647